TheGetRank SiteMap Page 2935
Home 2885 2886 2887 2888 2889 2890 2891 2892 2893 2894 2895 2896 2897 2898 2899 2900 2901 2902 2903 2904 2905 2906 2907 2908 2909 2910 2911 2912 2913 2914 2915 2916 2917 2918 2919 2920 2921 2922 2923 2924 2925 2926 2927 2928 2929 2930 2931 2932 2933 2934 2935 2936 2937 2938 2939 2940 2941 2942 2943 2944 2945 2946 2947 2948 2949 2950 2951 2952 2953 2954 2955 2956 2957 2958 2959 2960 2961 2962 2963 2964 2965 2966 2967 2968 2969 2970 2971 2972 2973 2974 2975 2976 2977 2978 2979 2980 2981 2982 2983 2984 2985
S.NO. Website Pagerank Alexa Rank Last Updated
2934000 jordanscomputers.com 1 No Rank 2011-09-30 18:23:51
2934001 qhpv.com 0 No Rank 2011-09-30 18:23:56
2934002 lions-fans.forumactif.com 2 2112 2011-09-30 18:24:01
2934003 501w.com 0 15989454 2011-09-30 18:24:02
2934004 s6.muo.lv 1 4204397 2011-09-30 18:24:08
2934005 posmyk.pl 1 16411879 2011-09-30 18:24:15
2934006 creativepresentationideas.blogspot.com 0 No Rank 2011-09-30 18:24:15
2934007 s2.muo.lv 2 4204397 2011-09-30 18:24:19
2934008 hlp2u.com 1 No Rank 2011-09-30 18:24:21
2934009 madschristensen-blaereroeven-vender-tibage.musiker-boersen.dk 0 4128891 2011-09-30 18:24:39
2934010 gyoku.com 2 24787137 2011-09-30 18:24:43
2934011 aiaitt.cn 0 No Rank 2011-09-30 18:25:08
2934012 500bw.com 0 8989929 2011-09-30 18:25:14
2934013 mobio.net 4 1202618 2011-09-30 18:25:19
2934014 sorens.net 0 20890826 2011-09-30 18:25:24
2934015 amoy.co.uk 4 7454716 2011-09-30 18:25:31
2934016 11most.com 3 2424920 2011-09-30 18:25:37
2934017 wap.spn.by 3 10958115 2011-09-30 18:25:42
2934018 drmichaelsdwyer.com 1 No Rank 2011-09-30 18:25:46
2934019 hjheinz.ie 5 6829759 2011-09-30 18:26:00
2934020 mottvisualsweddings.com 4 12774658 2011-09-30 18:26:01
2934021 gampan.com 0 No Rank 2011-09-30 18:26:09
2934022 7miast.com 0 No Rank 2011-09-30 18:26:10
2934023 doyouloveit.org 2 No Rank 2011-09-30 18:26:11
2934024 mrpleines.com 0 No Rank 2011-09-30 18:26:22
2934025 chm.com.pl 0 22484373 2011-09-30 18:26:28
2934026 sweetssystems.com 0 No Rank 2011-09-30 18:26:35
2934027 silverweddingshoes.blogspot.com 0 26106029 2011-09-30 18:26:35
2934028 dorrea.com 2 No Rank 2011-09-30 18:26:38
2934029 miosec.org 0 No Rank 2011-09-30 18:26:38
2934030 howtogetridofmold.info 0 5104403 2011-09-30 18:26:40
2934031 hokugin.jp 6 No Rank 2011-09-30 18:26:45
2934032 laborstandard.igc.org 4 7406110 2011-09-30 18:26:46
2934033 uc.att.com 6 362 2011-09-30 18:26:49
2934034 tv.gsn.com 5 7705 2011-09-30 18:26:58
2934035 new.spn.by 3 10958115 2011-09-30 18:27:02
2934036 mesaair.com 5 No Rank 2011-09-30 18:27:20
2934037 defain.com 0 No Rank 2011-09-30 18:27:25
2934038 ainhung.com 0 8757002 2011-09-30 18:27:32
2934039 barbaraal.nl 5 No Rank 2011-09-30 18:27:38
2934040 cpdsllc.com 0 No Rank 2011-09-30 18:27:45
2934041 feflow.info 5 2227224 2011-09-30 18:27:45
2934042 beard45.com 0 No Rank 2011-09-30 18:27:55
2934043 view.mqr.co 4 16419487 2011-09-30 18:27:59
2934044 my.kutep.ua 2 5372692 2011-09-30 18:28:04
2934045 excidium.fr 0 No Rank 2011-09-30 18:28:09
2934046 filearn.com 0 109093 2011-09-30 18:28:14
2934047 riveter.com 4 4449721 2011-09-30 18:28:29
2934048 anabash.com 0 No Rank 2011-09-30 18:28:33
2934049 x3dporn.com 0 No Rank 2011-09-30 18:28:34
2934050 poker-hand.blogspot.com 0 No Rank 2011-09-30 18:28:36
2934051 macworld.nl 5 106560 2011-09-30 18:28:40
2934052 house.textphilippines.org 0 475507 2011-09-30 18:28:49
2934053 vanshome.com 0 No Rank 2011-09-30 18:28:50
2934054 selamta.org 4 No Rank 2011-09-30 18:28:55
2934055 tempopay.com 3 22955529 2011-09-30 18:28:55
2934056 rol.gcfn.org 2 3129415 2011-09-30 18:29:00
2934057 sabaihair-makeup.igetweb.com 0 14711 2011-09-30 18:29:04
2934058 r-charge.com 4 515204 2011-09-30 18:29:05
2934059 bariq-eg.com 0 No Rank 2011-09-30 18:29:10
2934060 turnaboutfarm2.com 0 No Rank 2011-09-30 18:29:17
2934061 shopspry.com 0 1730270 2011-09-30 18:29:25
2934062 ns.hicom.net 4 505447 2011-09-30 18:29:26
2934063 byoinnavi.jp 5 52043 2011-09-30 18:29:38
2934064 ebdfblog.com 0 No Rank 2011-09-30 18:29:44
2934065 bts.grml.org 4 872172 2011-09-30 18:29:52
2934066 vitofrut.com 0 No Rank 2011-09-30 18:29:55
2934067 timsonsusedprintingpresses.com 0 No Rank 2011-09-30 18:29:58
2934068 gleaners.org 5 5768974 2011-09-30 18:29:59
2934069 jcnabity.com 5 4258651 2011-09-30 18:30:02
2934070 termopan-geam.ro 0 No Rank 2011-09-30 18:30:07
2934071 ohio.scout.com 4 1838 2011-09-30 18:30:09
2934072 mundoimg.com 3 2655262 2011-09-30 18:30:17
2934073 accentue.com 2 No Rank 2011-09-30 18:30:21
2934074 mareklimousine.net 0 15559720 2011-09-30 18:30:30
2934075 bpo.snsc.com 0 4181326 2011-09-30 18:30:53
2934076 photos.i18.in 1 175952 2011-09-30 18:30:58
2934077 hentai3d.mobi 0 20168734 2011-09-30 18:31:03
2934078 memoryfoammattressretailers.com 2 9937687 2011-09-30 18:31:14
2934079 collegerecruiter.resumeedge.com 4 165247 2011-09-30 18:31:18
2934080 austria-hotels-international.at 5 No Rank 2011-09-30 18:31:24
2934081 coolest-vampire-art-gallery.com 2 639182 2011-09-30 18:31:33
2934082 lighthouse.artifactsoftware.com 4 No Rank 2011-09-30 18:31:40
2934083 essentiellemagazines.lalibre.be 6 9237 2011-09-30 18:31:53
2934084 blackjackcrapspokerroulette.com 3 No Rank 2011-09-30 18:31:57
2934085 soulsurfer.interlinc-online.com 3 276761 2011-09-30 18:32:02
2934086 registration.sciencefairstl.org 2 5993653 2011-09-30 18:32:16
2934087 lettings.chestertonhumberts.com 0 172035 2011-09-30 18:32:28
2934088 job.computertrainingschools.com 0 309607 2011-09-30 18:32:35
2934089 catering.klnh.harbour-plaza.com 1 220535 2011-09-30 18:32:44
2934090 georestore.com 2 4286968 2011-09-30 18:32:48
2934091 chesapeakebaycharterfishing.net 0 No Rank 2011-09-30 18:33:01
2934092 midwestlegalmarketing.biz 0 No Rank 2011-09-30 18:33:11
2934093 davebedardandsonsexcavating.com 2 No Rank 2011-09-30 18:33:17
2934094 student-loans-consolidating.com 0 2482545 2011-09-30 18:33:22
2934095 jewelry-designs-and-stories.com 0 28070949 2011-09-30 18:33:28
2934096 kimberleynaturepark.rockies.net 3 570014 2011-09-30 18:33:35
2934097 rrcs-24-39-26-44.nys.biz.rr.com 5 383 2011-09-30 18:33:40
2934098 publish.marketupdatenetwork.com 0 9792441 2011-09-30 18:33:44
2934099 payperview.spacebabecentral.com 0 3273707 2011-09-30 18:33:49
2934100 miracles-course.hostasaurus.com 4 88683 2011-09-30 18:34:01
2934101 blueraven.fox-international.com 2 703330 2011-09-30 18:34:07
2934102 lasoon.com.ua 4 659331 2011-09-30 18:34:20
2934103 turismosolidario.caritas.org.pe 4 2300213 2011-09-30 18:34:24
2934104 kineticbiketrainer.com.au 0 No Rank 2011-09-30 18:34:30
2934105 loresamoyeds.com 2 21938793 2011-09-30 18:34:34
2934106 u15398573.onlinehome-server.com 6 17307 2011-09-30 18:34:44
2934107 ankafuar.com.tr 0 No Rank 2011-09-30 18:35:10
2934108 secure.elkhartcountysheriff.com 0 2459769 2011-09-30 18:35:19
2934109 licitatiipublice.clubafaceri.ro 4 48091 2011-09-30 18:35:35
2934110 server1.openchannelsoftware.org 5 6063974 2011-09-30 18:35:38
2934111 secure.independentpublisher.com 0 725703 2011-09-30 18:35:46
2934112 hogehakjes621.sexdating2.info 0 No Rank 2011-09-30 18:35:49
2934113 newcastlechinesemedicine.com.au 0 No Rank 2011-09-30 18:35:53
2934114 thecouchlady.com 2 9232148 2011-09-30 18:36:12
2934115 community.majorleaguegaming.com 5 12963 2011-09-30 18:36:12
2934116 aveninc.com 4 8834683 2011-09-30 18:36:12
2934117 trinityhospitalbirminghamal.com 1 No Rank 2011-09-30 18:36:20
2934118 immigrantamericans.harpweek.com 0 2273002 2011-09-30 18:36:23
2934119 va-christiansburg.civicplus.com 5 103108 2011-09-30 18:36:27
2934120 events.greenrivermainstreet.org 0 No Rank 2011-09-30 18:36:34
2934121 hj0312.com 0 No Rank 2011-09-30 18:36:36
2934122 bomco.itrademarket.com 0 39903 2011-09-30 18:36:36
2934123 careerdevelopmentroundtable.org 3 No Rank 2011-09-30 18:36:42
2934124 tietopalvelu.ilmailuhallinto.fi 0 2304212 2011-09-30 18:36:44
2934125 catering.hpme.harbour-plaza.com 3 220535 2011-09-30 18:36:49
2934126 uppervalleyprofessionalcorp.net 2 No Rank 2011-09-30 18:36:54
2934127 zarkabcrestsen.cwahi.net 0 57155 2011-09-30 18:36:57
2934128 comercioweb.jfinternational.com 0 716491 2011-09-30 18:36:59
2934129 eco-services.worldlandtrust.org 6 554739 2011-09-30 18:37:01
2934130 paesandsaccswel.cwahi.net 0 57155 2011-09-30 18:37:06
2934131 abanguana.cwahi.net 0 57155 2011-09-30 18:37:10
2934132 smedjeback.libarena2.axiell.com 0 2596848 2011-09-30 18:37:14
2934133 analwason.cwahi.net 0 57155 2011-09-30 18:37:15
2934134 internet-software-solutions.org 0 2037617 2011-09-30 18:37:16
2934135 exuclobjest.cwahi.net 0 57155 2011-09-30 18:37:21
2934136 learnenglish.britishcouncil.org 7 6634 2011-09-30 18:37:23
2934137 amawebs.blogspot.com 0 6236926 2011-09-30 18:37:26
2934138 buchmoluvin.cwahi.net 0 57155 2011-09-30 18:37:27
2934139 superborg.horrorfindweekend.com 4 480923 2011-09-30 18:37:33
2934140 proslockwhysicht.cwahi.net 0 57155 2011-09-30 18:37:35
2934141 zouliscrap.forumactif.net 1 7405 2011-09-30 18:37:37
2934142 drugscriminaldefenselawyers.com 0 No Rank 2011-09-30 18:37:41
2934143 topwebsearches.leadinternet.com 0 2098691 2011-09-30 18:37:42
2934144 etspokcastmen.cwahi.net 0 57155 2011-09-30 18:37:44
2934145 viehanrouking.cwahi.net 0 57155 2011-09-30 18:37:51
2934146 qponmarketing.couponbuilder.com 0 1300141 2011-09-30 18:37:52
2934147 mayleyvibel.cwahi.net 0 57155 2011-09-30 18:37:55
2934148 webmail.municipalidadtucapel.cl 0 18194071 2011-09-30 18:38:00
2934149 eastsussex.commandokravmaga.com 0 701225 2011-09-30 18:38:07
2934150 janicealonso.georgiawriters.org 0 2201036 2011-09-30 18:38:13
2934151 coral.spectrum.uni-bielefeld.de 4 40784 2011-09-30 18:38:15
2934152 employeeportal.eagleschools.net 0 3705165 2011-09-30 18:38:22
2934153 buckeyedevelopmentlogistics.com 3 13592515 2011-09-30 18:38:26
2934154 rechtsbijstands-verzekering.nl 0 No Rank 2011-09-30 18:38:30
2934155 supersmall.com 4 No Rank 2011-09-30 18:38:31
2934156 download-construction-forms.com 3 2854418 2011-09-30 18:38:34
2934157 lakewoodsoftwareengineering.com 1 No Rank 2011-09-30 18:38:43
2934158 sportsblog.canterburyschool.org 4 8122244 2011-09-30 18:38:49
2934159 yesilatlas.kesfetmekicinbak.com 3 624241 2011-09-30 18:38:54
2934160 caoliu1024t66y.tumblr.com 0 No Rank 2011-09-30 18:38:57
2934161 ultimateallianceconsultancy.com 0 No Rank 2011-09-30 18:39:02
2934162 the-lifestyle-magazine.com 0 21972753 2011-09-30 18:39:10
2934163 thelostandfoundsaloon-miami.com 3 4561738 2011-09-30 18:39:10
2934164 artificialflowerarrangement.org 0 19181649 2011-09-30 18:39:22
2934165 caoliubolg1024.tumblr.com 0 No Rank 2011-09-30 18:39:29
2934166 phunter.automatedhomefinder.com 0 458501 2011-09-30 18:39:32
2934167 radioguide.genesis-movement.org 3 693839 2011-09-30 18:39:39
2934168 existing.free-website-polls.com 1 806718 2011-09-30 18:39:41
2934169 uppervalleyprofessionalcorp.com 2 No Rank 2011-09-30 18:39:55
2934170 interactive.captioncolorado.com 5 2208494 2011-09-30 18:39:55
2934171 despacho.lagrimasenlalluvia.com 0 12126086 2011-09-30 18:40:02
2934172 cabinetdrawerlocks.dealshopcenter.com 0 No Rank 2011-09-30 18:40:11
2934173 psychologists.healthcentral.com 4 8878 2011-09-30 18:40:15
2934174 1cjqnk1.remote.schoolcenter.com 0 732334 2011-09-30 18:40:22
2934175 10-8.ca 0 No Rank 2011-09-30 18:40:30
2934176 birinesport.yoo7.com 1 4571883 2011-09-30 18:40:32
2934177 itransact.libertydentalplan.com 0 1844358 2011-09-30 18:40:37
2934178 xiuxianshijia1689.taobao.com 0 16 2011-09-30 18:40:41
2934179 southasia.abbottdiagnostics.com 4 1395363 2011-09-30 18:40:42
2934180 java.halfageek.info 0 1926878 2011-09-30 18:40:48
2934181 housingblog.thewoodyproject.com 0 No Rank 2011-09-30 18:40:50
2934182 journey-with-crohns-disease.com 2 831042 2011-09-30 18:40:54
2934183 midi-pet.mileage.cocacola.co.jp 0 4719 2011-09-30 18:40:58
2934184 guide.disneyworld.disney.go.com 0 619 2011-09-30 18:41:02
2934185 airport-transfers-falkirk.co.uk 2 21060881 2011-09-30 18:41:10
2934186 annualreport2010.microfocus.com 4 124182 2011-09-30 18:41:20
2934187 solarisnewtech.itrademarket.com 0 39903 2011-09-30 18:41:27
2934188 runwithbryan.com 0 No Rank 2011-09-30 18:41:28
2934189 mediakit.golfcourseindustry.com 4 856842 2011-09-30 18:41:29
2934190 hobiefleet281.com 1 No Rank 2011-09-30 18:41:30
2934191 auditex.co.uk 1 No Rank 2011-09-30 18:41:36
2934192 binbirgece.kesfetmekicinbak.com 3 624241 2011-09-30 18:41:39
2934193 multimedia.designerstencils.com 2 515991 2011-09-30 18:41:47
2934194 medicalcultivationsolutions.com 0 23194417 2011-09-30 18:41:57
2934195 makinggenderequalityreal.org.uk 3 No Rank 2011-09-30 18:42:03
2934196 1stwebz.com 1 33995 2011-09-30 18:42:09
2934197 freeall4u.weebly.com 0 No Rank 2011-09-30 18:42:21
2934198 sandiegozooprintablecoupons.com 0 No Rank 2011-09-30 18:42:23
2934199 structuredabstracts.nlm.nih.gov 5 369 2011-09-30 18:42:27
2934200 moege-der-staerkste-gewinnen.de 0 No Rank 2011-09-30 18:42:40
2934201 teammaboul.forumactif.com 1 2112 2011-09-30 18:42:42
2934202 web-basedpropertymanagement.com 0 22068820 2011-09-30 18:42:43
2934203 flittchenrealtreffen.privatsextreffen.com 0 26849251 2011-09-30 18:42:43
2934204 horseracingmegasite.fastprofitpages.com 0 91121 2011-09-30 18:42:44
2934205 members.468.dating-exchange.com 0 6020264 2011-09-30 18:42:53
2934206 gilfs049.sexdating2.info 0 No Rank 2011-09-30 18:42:55
2934207 longboardhouse.3dcartstores.com 2 4912 2011-09-30 18:43:02
2934208 inseraterealtreffen.privatsextreffen.com 0 26849251 2011-09-30 18:43:09
2934209 hyipinvestigasi.blogspot.com 0 No Rank 2011-09-30 18:43:11
2934210 catering.hpnp.harbour-plaza.com 0 220535 2011-09-30 18:43:12
2934211 cholatracker.cholainsurance.com 0 848442 2011-11-02 20:45:49
2934212 1923712865218763.gaybloggen.com 0 1030092 2011-09-30 18:43:17
2934213 circulodeaccionistaspopular.com 0 No Rank 2011-09-30 18:43:31
2934214 coachingexcellenceinstitute.com 0 No Rank 2011-09-30 18:43:32
2934215 backyardlandscapedesignideas.com 0 No Rank 2011-09-30 18:43:34
2934216 staging.internationaldelight.com 4 86767 2011-09-30 18:43:41
2934217 aandaautorepair.ca 2 18538984 2011-09-30 18:43:47
2934218 vl040.affiliate.vliegtarieven.nl 0 447933 2011-09-30 18:43:48
2934219 novonordiskchipganassiracing.com 5 No Rank 2011-09-30 18:43:53
2934220 secure.instantsoftwareonline.com 2 96695 2011-09-30 18:43:57
2934221 versauterealtreffen.privatsextreffen.com 0 26849251 2011-09-30 18:44:01
2934222 piquachristian.com 0 No Rank 2011-09-30 18:44:01
2934223 muschihobbyhuren.privatsextreffen.com 0 26849251 2011-09-30 18:44:01
2934224 special-reports.pickuptrucks.com 5 83074 2011-09-30 18:44:03
2934225 premierskills.britishcouncil.org 6 6634 2011-09-30 18:44:03
2934226 coupons.comparestoreprice.net 0 13725782 2011-09-30 18:44:09
2934227 motorgp.darkbb.com 0 17389 2011-09-30 18:44:09
2934228 sustainableeconomyconference.com 4 21076556 2011-09-30 18:44:10
2934229 smallbusiness.cityofstamford.org 2 925039 2011-09-30 18:44:15
2934230 liftandcarry.forumotion.net 0 7366 2011-09-30 18:44:23
2934231 test.southbankcorporation.com.au 5 8059385 2011-09-30 18:44:23
2934232 carmelclayparksandrecreation.org 0 No Rank 2011-09-30 18:44:23
2934233 movablet.capemaycountyherald.com 0 99930 2011-09-30 18:44:28
2934234 21eq.com 0 No Rank 2011-09-30 18:44:41
2934235 nursing.catawbavalleymedical.org 2 5512403 2011-09-30 18:44:49
2934236 countryvacationstestimonials.com 0 18523572 2011-09-30 18:44:52
2934237 milwaukeecountyhumanesociety.org 5 No Rank 2011-09-30 18:44:55
2934238 shopandchampagne.bbartcenter.org 1 6313400 2011-09-30 18:45:02
2934239 deutschehobbyhuren.privatsextreffen.com 0 26849251 2011-09-30 18:45:04
2934240 seattleparamount.coasthotels.com 0 254165 2011-09-30 18:45:06
2934241 atlantapoliceofficerspension.org 1 19754878 2011-09-30 18:45:11
2934242 bcelection.policyalternatives.ca 5 796439 2011-09-30 18:45:22
2934243 langeoog-ferienwohnung-urlaub.de 1 5205696 2011-09-30 18:45:27
2934244 whitefences.customwinesource.com 0 2844085 2011-09-30 18:45:31
2934245 carencrohigh-prod.lpssonline.com 3 833594 2011-09-30 18:45:34
2934246 norule.net 0 6122359 2011-09-30 18:45:38
2934247 varanitux.com 1 15007807 2011-09-30 18:45:40
2934248 bookstore.bakersfieldcollege.edu 0 350717 2011-09-30 18:45:40
2934249 side-eye-fever.crunktastical.net 2 81613 2011-09-30 18:45:45
2934250 residencepc.pierreetvacances.com 0 36331 2011-09-30 18:45:54
2934251 lifespanmontessori.com 2 17005769 2011-09-30 18:46:00
2934252 planet.debian-administration.org 5 28114 2011-09-30 18:46:02
2934253 requestinfo.hiltonheadisland.org 4 313397 2011-09-30 18:46:10
2934254 starclassifieds.starbulletin.com 6 196554 2011-09-30 18:46:23
2934255 anchorageairport.coasthotels.com 0 254165 2011-09-30 18:46:24
2934256 newimagesbusinessconsultants.com 0 No Rank 2011-09-30 18:46:29
2934257 kubah-surya.blogspot.com 0 11441758 2011-09-30 18:46:34
2934258 journalofadvertisingresearch.com 3 2428681 2011-09-30 18:46:42
2934259 printerinkcartridgescheapnow.com 1 26697796 2011-09-30 18:46:50
2934260 pensioenfondscorporateexpress.nl 2 No Rank 2011-09-30 18:46:55
2934261 connectlearning.davidwarlick.com 5 102422 2011-09-30 18:47:00
2934262 40segredos.idigitalcenter.com.br 1 2203212 2011-09-30 18:47:00
2934263 ys.fxss8.com 0 No Rank 2011-09-30 18:47:01
2934264 qd.fxss8.com 0 No Rank 2011-09-30 18:47:02
2934265 kostenlose-prepaidkreditkarte.de 1 14877858 2011-09-30 18:47:06
2934266 application.joshuawilderness.org 1 No Rank 2011-09-30 18:47:09
2934267 xmn.jianfood.com 0 No Rank 2011-09-30 18:47:11
2934268 rides.musclemustangfastfords.com 3 411304 2011-09-30 18:47:16
2934269 world-water-forum-2012-europa.eu 5 906187 2011-09-30 18:47:18
2934270 ebayshowroom.ebaymotorspro.co.uk 0 113395 2011-09-30 18:47:23
2934271 search.williampennfoundation.org 0 5035802 2011-09-30 18:47:28
2934272 ascendant.classiclegendbooks.com 2 387249 2011-09-30 18:47:32
2934273 shop.ordnancesurveyleisure.co.uk 6 208917 2011-09-30 18:47:34
2934274 jellystonebagley.avantgaard.info 2 No Rank 2011-09-30 18:47:38
2934275 palaceonwheels-train.com 2 896937 2011-09-30 18:47:42
2934276 landing.thomasvilleofhouston.com 0 21803835 2011-09-30 18:47:44
2934277 myaccount.peoplesgasdelivery.com 4 226570 2011-09-30 18:47:49
2934278 affordablehomeinsurancequote.com 2 8786400 2011-09-30 18:47:53
2934279 dodgechallenger.chapmandodge.com 2 6442284 2011-09-30 18:48:00
2934280 cameron-highland-destination.com 3 891334 2011-09-30 18:48:04
2934281 shemaleblowjob.pornblogspace.com 0 48981 2011-09-30 18:48:07
2934282 illcommunication.beastieboys.com 5 126127 2011-09-30 18:48:09
2934283 dawntreader.interlinc-online.com 0 276761 2011-09-30 18:48:11
2934284 import-nitrous-oxide-systems.com 0 No Rank 2011-09-30 18:48:14
2934285 cyclocrossworld.3dcartstores.com 0 4912 2011-09-30 18:48:17
2934286 betterlivingwithfibromyalgia.com 0 No Rank 2011-09-30 18:48:25
2934287 emstation.net 0 No Rank 2011-09-30 18:48:30
2934288 remmingtondanes.com 1 22872973 2011-09-30 18:48:32
2934289 customvictorymotorcycleparts.com 0 No Rank 2011-09-30 18:48:40
2934290 jellygamat.acepsuherman.com 1 412901 2011-09-30 18:48:43
2934291 hurrydate.happygreetingcards.com 0 10390080 2011-09-30 18:48:45
2934292 globalprofession.law.indiana.edu 5 9240 2011-09-30 18:48:49
2934293 just-underwriting-motorsport.com 1 17944194 2011-09-30 18:48:53
2934294 f4ahw.free.fr 0 208 2011-09-30 18:48:57
2934295 puritandrycleaner.com 0 No Rank 2011-09-30 18:49:03
2934296 bilgimusavirlik.net 0 28630757 2011-09-30 18:49:24
2934297 sallyheasley.co.uk 4 26359118 2011-09-30 18:49:57
2934298 arab80.c.la 0 26583 2011-09-30 18:50:50
2934299 juustuveeb.eu.pe 0 No Rank 2011-09-30 18:50:54
2934300 wow.textphilippines.org 0 475507 2011-09-30 18:50:59
2934301 josephdickerson.com 4 5106709 2011-09-30 18:51:08
2934302 microsofttemplates.us 0 No Rank 2011-09-30 18:51:33
2934303 mothermarypublicschool.com 0 8958685 2011-09-30 18:51:56
2934304 silveroom.com 0 No Rank 2011-09-30 18:51:58
2934305 campaignlearn.org 2 No Rank 2011-09-30 18:52:11
2934306 al-pacino.bloger.hr 2 13308 2011-09-30 18:52:50
2934307 sjo.pl 3 13029196 2011-09-30 18:52:52
2934308 paq.net 0 19969109 2011-09-30 18:52:53
2934309 balad.pl 0 No Rank 2011-09-30 18:52:58
2934310 hamad.qa 7 474610 2011-09-30 18:53:02
2934311 ssrs.com 5 21466022 2011-09-30 18:53:04
2934312 hr.un.md 4 1886319 2011-09-30 18:53:23
2934313 usnovacorp.com 3 No Rank 2011-09-30 18:53:23
2934314 vlille.fr 3 838710 2011-09-30 18:53:23
2934315 turinf.pl 1 No Rank 2011-09-30 18:53:33
2934316 irusa.org 5 497639 2011-09-30 18:53:34
2934317 efa.un.md 4 1886319 2011-09-30 18:53:39
2934318 istori.es 4 No Rank 2011-09-30 18:53:42
2934319 aerobik.pl 2 23177316 2011-09-30 18:53:51
2934320 majstorot.bloger.hr 1 13308 2011-09-30 18:53:52
2934321 kofcva.org 0 19792768 2011-09-30 18:53:52
2934322 scipie.org 3 No Rank 2011-09-30 18:53:54
2934323 m-fold.com 3 No Rank 2011-09-30 18:54:02
2934324 korela.com 0 No Rank 2011-09-30 18:54:08
2934325 scipie.net 3 No Rank 2011-09-30 18:54:10
2934326 matxac.com 1 126595 2011-09-30 18:54:15
2934327 coolmore.tv 4 21880984 2011-09-30 18:54:23
2934328 agt.bwgg.pl 2 No Rank 2011-09-30 18:54:30
2934329 vica-uvelir.ru 0 No Rank 2011-09-30 18:54:30
2934330 asumo-co.jp 0 No Rank 2011-09-30 18:54:31
2934331 westchathaminsurance.com 0 No Rank 2011-09-30 18:54:37
2934332 genbei.info 4 5520964 2011-09-30 18:54:42
2934333 neobloo.com 1 No Rank 2011-09-30 18:54:48
2934334 d2gmail.com 0 20408817 2011-09-30 18:54:54
2934335 provoflorist.com 2 7962970 2011-09-30 18:55:00
2934336 multicam.us 0 No Rank 2011-09-30 18:55:08
2934337 publicidadeninternet.biz 3 967054 2011-09-30 18:55:10
2934338 inweb.net.uk 3 10912598 2011-09-30 18:55:13
2934339 mobiusvc.org 0 No Rank 2011-09-30 18:55:19
2934340 bpsgroup.net 1 No Rank 2011-09-30 18:55:23
2934341 cnclaser.com 0 No Rank 2011-09-30 18:55:28
2934342 stratsim.com 5 No Rank 2011-09-30 18:55:30
2934343 chinagirl.nl 0 5943926 2011-09-30 18:55:35
2934344 eco.gozo.com 4 1378143 2011-09-30 18:55:38
2934345 2leep.co 0 11057106 2011-09-30 18:55:41
2934346 hhcenter.org 4 No Rank 2011-09-30 18:55:48
2934347 spencley.com 1 No Rank 2011-09-30 18:55:51
2934348 chattahippie.com 1 No Rank 2011-09-30 18:55:53
2934349 kiakrazy.com 2 5040722 2011-09-30 18:56:04
2934350 ipex.oce.com 3 190409 2011-09-30 18:56:05
2934351 rcwilley.net 5 11724895 2011-09-30 18:56:09
2934352 wsw.hobiz.nl 0 1622628 2011-09-30 18:56:12
2934353 americanlives.com 3 22837631 2011-09-30 18:56:16
2934354 milehifootball.com 1 No Rank 2011-09-30 18:56:28
2934355 theblvdindresser.com 2 No Rank 2011-09-30 18:56:29
2934356 motivatingemployees.blogspot.com 0 No Rank 2011-09-30 18:56:31
2934357 lakerace.com 0 No Rank 2011-09-30 18:56:34
2934358 winningtheculturewarthebook.com 0 No Rank 2011-09-30 18:56:37
2934359 hostirian.com 3 290972 2011-09-30 18:56:50
2934360 m.isizulu.net 4 984422 2011-09-30 18:56:52
2934361 wako-housing.com 1 9242617 2011-09-30 18:57:00
2934362 morevideo.org 0 22133440 2011-09-30 18:57:00
2934363 cop.ahima.org 5 119473 2011-09-30 18:57:05
2934364 bradenton.allfloridahotels.net 3 1065070 2011-09-30 18:57:05
2934365 providyn.com 3 13492351 2011-09-30 18:57:06
2934366 trendyblog.pl 1 No Rank 2011-09-30 18:57:13
2934367 siteinform.ru 5 226922 2011-09-30 18:57:17
2934368 fitness.76.pl 2 No Rank 2011-09-30 18:57:19
2934369 janalldrittmiller.com 2 No Rank 2011-09-30 18:57:21
2934370 windowslivemessenger.us 0 No Rank 2011-09-30 18:57:22
2934371 fight-planet.com 1 No Rank 2011-09-30 18:57:23
2934372 pimpjokes.com 0 19193023 2011-09-30 18:57:30
2934373 murfo.com 0 1570091 2011-09-30 18:57:32
2934374 nisshunten.jp 4 No Rank 2011-09-30 18:57:32
2934375 ipgfamily.com 3 No Rank 2011-09-30 18:57:39
2934376 aefisport.com 4 27399430 2011-09-30 18:57:47
2934377 windfair.info 4 No Rank 2011-09-30 18:57:53
2934378 swraiders.com 4 No Rank 2011-09-30 18:57:56
2934379 sarc-info.com 3 No Rank 2011-09-30 18:58:00
2934380 microsoftsecurityessentials.us 0 No Rank 2011-09-30 18:58:01
2934381 videos.i18.in 0 175952 2011-09-30 18:58:08
2934382 moremagic.com 4 1853760 2011-09-30 18:58:20
2934383 trendylook.pl 3 1807467 2011-09-30 18:58:21
2934384 hopelinks.com 4 10334385 2011-09-30 18:58:32
2934385 aydox.com 0 8998647 2011-09-30 18:58:46
2934386 newsindia.com 0 681230 2011-09-30 18:58:48
2934387 hickamfcu.com 3 23410020 2011-09-30 18:58:49
2934388 milicense.net 2 No Rank 2011-09-30 18:58:57
2934389 soulpatch.com 0 14634280 2011-09-30 18:59:05
2934390 armspedia.org 1 No Rank 2011-09-30 18:59:11
2934391 strictlycomedancing2011.com 0 No Rank 2011-09-30 18:59:18
2934392 wwwe.ppssf.org 0 6499766 2011-09-30 18:59:24
2934393 etiketmakineleri.com 0 No Rank 2011-09-30 18:59:25
2934394 alpha.managedq.com 0 4040276 2011-09-30 18:59:30
2934395 getmobioid.com 4 No Rank 2011-09-30 18:59:33
2934396 lanskybros.com 4 3750751 2011-09-30 18:59:38
2934397 brokowo.wrw.pl 1 15626815 2011-09-30 18:59:41
2934398 hu.tipptop.com 5 No Rank 2011-09-30 18:59:46
2934399 micasa.uk.com 0 No Rank 2011-09-30 18:59:47
2934400 kinathivi.com 1 9236861 2011-09-30 18:59:51
2934401 leonardo.eu.pl 0 637297 2011-09-30 18:59:52
2934402 web.herspw.com 4 370864 2011-09-30 18:59:55
2934403 smorgasblog.ie 3 8275537 2011-09-30 19:00:02
2934404 pomoc.friko.pl 2 119288 2011-09-30 19:00:02
2934405 koffeephoto.jp 4 833613 2011-09-30 19:00:13
2934406 cm-central.com 0 No Rank 2011-09-30 19:00:16
2934407 amerigo1934.it 4 14388572 2011-09-30 19:00:19
2934408 ad.music.ne.jp 0 2712673 2011-09-30 19:00:23
2934409 haydioyuna.com 3 1983129 2011-09-30 19:00:31
2934410 villman.com.ph 4 1104705 2011-09-30 19:00:34
2934411 esgr.colug.net 2 10754546 2011-09-30 19:00:35
2934412 wiki.ifmsa.org 4 1192663 2011-09-30 19:00:38
2934413 musicaevita.de 3 No Rank 2011-09-30 19:00:41
2934414 kobayashi-shoji.com 2 No Rank 2011-09-30 19:00:43
2934415 motworld.com 0 No Rank 2011-09-30 19:00:51
2934416 montranspole.fr 0 No Rank 2011-09-30 19:00:54
2934417 pornmovie23.com 0 No Rank 2011-09-30 19:00:54
2934418 larkinglark.com 0 No Rank 2011-09-30 19:01:03
2934419 ropes.swfas.org 3 6069172 2011-09-30 19:01:08
2934420 archive.hhs.gov 9 13222 2011-09-30 19:01:10
2934421 themaxinebarratstory.kristinbaggelaar.com 0 No Rank 2011-09-30 19:01:10
2934422 stage.zesco.com 0 428084 2011-09-30 19:01:13
2934423 attheloft.net 2 No Rank 2011-09-30 19:01:16
2934424 wideookulary.pl 0 No Rank 2011-09-30 19:01:17
2934425 democracyinamerica.org 0 No Rank 2011-09-30 19:01:19
2934426 labarotanos.com 0 17763330 2011-09-30 19:01:24
2934427 ftp.hosting.com 6 26427 2011-09-30 19:01:26
2934428 online.lexi.com 6 865197 2011-09-30 19:01:34
2934429 cathicks.com 3 No Rank 2011-09-30 19:01:39
2934430 agent.gsbor.com 3 537370 2011-09-30 19:01:39
2934431 nakleek.net 2 4744422 2011-09-30 19:01:40
2934432 itokhelp.com.au 2 No Rank 2011-09-30 19:01:47
2934433 homes.gsbor.com 3 537370 2011-09-30 19:01:51
2934434 forum.oz-au.net 0 No Rank 2011-09-30 19:01:54
2934435 gsmprograms.com 0 15347564 2011-09-30 19:01:58
2934436 placebook.co.il 4 4143481 2011-09-30 19:02:03
2934437 docs.groove.net 0 6012864 2011-09-30 19:02:11
2934438 raycalma.com 1 No Rank 2011-09-30 19:02:16
2934439 video.hfchs.org 2 1192987 2011-09-30 19:02:16
2934440 cookfpshakman.com 4 No Rank 2011-09-30 19:02:18
2934441 test.bysiden.no 3 1665823 2011-09-30 19:02:21
2934442 bigeurobux-alvin.blogspot.com 0 No Rank 2011-09-30 19:02:22
2934443 vicongdongviet.vn 0 2825188 2011-09-30 19:02:23
2934444 mail.mville.edu 3 856019 2011-09-30 19:02:24
2934445 housing-matters.com 0 No Rank 2011-09-30 19:02:26
2934446 fy-vibno.com 0 No Rank 2011-09-30 19:02:29
2934447 antoniooneca.com 2 No Rank 2011-09-30 19:02:33
2934448 mynetplus.net 0 No Rank 2011-09-30 19:02:35
2934449 web.playbill.com 7 20562 2011-09-30 19:02:38
2934450 fercotech.com 3 No Rank 2011-09-30 19:02:42
2934451 ww2.ifyouski.com 0 507487 2011-09-30 19:02:46
2934452 support.idmi.net 3 943135 2011-09-30 19:02:52
2934453 budeltagamma.org 2 14382810 2011-09-30 19:02:55
2934454 americaslate.com 0 No Rank 2011-09-30 19:02:58
2934455 map.japanpost.jp 0 1014 2011-09-30 19:03:02
2934456 ns.humoruniv.com 0 30716 2011-09-30 19:03:13
2934457 huaxinlangke.com 2 No Rank 2011-09-30 19:03:22
2934458 www1587.sakura.ne.jp 0 371 2011-09-30 19:03:24
2934459 shellhairnbeautysalon.com 0 No Rank 2011-09-30 19:03:27
2934460 biztonsag.ing.hu 0 269057 2011-09-30 19:03:29
2934461 s.hu.tipptop.com 0 No Rank 2011-09-30 19:03:41
2934462 benjaminbush.com 0 No Rank 2011-09-30 19:03:46
2934463 videos.h-gac.com 0 1473454 2011-09-30 19:03:49
2934464 premierkicks.com 2 5951186 2011-09-30 19:03:55
2934465 sv.surugaya.mobi 2 No Rank 2011-09-30 19:04:00
2934466 coloradoalohafest.com 3 22905833 2011-09-30 19:04:01
2934467 mx94173.superdata.vn 0 72737 2011-09-30 19:04:09
2934468 telespectadoresasociados.org 3 No Rank 2011-09-30 19:04:09
2934469 miamitravertine.com 0 No Rank 2011-09-30 19:04:12
2934470 boekmakierie.co.za 4 10888901 2011-09-30 19:04:17
2934471 demonrazor.deviantart.com 0 130 2011-09-30 19:04:20
2934472 cheatsegames.com 0 25075781 2011-09-30 19:04:28
2934473 hkssf-ext.org.hk 4 4939855 2011-09-30 19:04:36
2934474 iran3ex.8k.com 0 3422 2011-09-30 19:04:40
2934475 theorganicdogfoodstore.com 0 No Rank 2011-09-30 19:04:42
2934476 en.proverbia.net 5 8903 2011-09-30 19:04:44
2934477 ns8915.dotvndns.vn 0 145953 2011-09-30 19:04:45
2934478 da80.com 2 7674493 2011-09-30 19:05:02
2934479 dianarosa.com.ar 0 No Rank 2011-09-30 19:05:05
2934480 astralcastle.com 3 3493556 2011-09-30 19:05:08
2934481 bestlovequote.info 0 No Rank 2011-09-30 19:05:13
2934482 nl.ready2move.be 1 570417 2011-09-30 19:05:14
2934483 juegosdiarios.tv 3 746149 2011-09-30 19:05:17
2934484 campus.ahima.org 5 119473 2011-09-30 19:05:23
2934485 blogtoppings.com 0 No Rank 2011-09-30 19:05:31
2934486 photoservices.net 3 No Rank 2011-09-30 19:05:37
2934487 casino.cdnwiz.com 0 No Rank 2011-09-30 19:05:41
2934488 gael-varoquaux.info 5 2814601 2011-09-30 19:05:45
2934489 guetocapoeira.com 1 No Rank 2011-09-30 19:05:46
2934490 bdr.bmcgroup.com 0 1776972 2011-09-30 19:05:50
2934491 iodatacenters.com 5 188287 2011-09-30 19:05:51
2934492 utilityshield.com 2 No Rank 2011-09-30 19:05:56
2934493 heinzoffers.co.uk 2 10950205 2011-09-30 19:06:00
2934494 evgproperties.com 1 No Rank 2011-09-30 19:06:01
2934495 1365car.enews.ukacc.co.uk 0 3850760 2011-09-30 19:06:07
2934496 playbillradio.com 6 7921183 2011-09-30 19:06:11
2934497 ww2.dietitians.ca 4 763920 2011-09-30 19:06:17
2934498 pages.central.edu 0 772540 2011-09-30 19:06:19
2934499 2k2.co.uk 0 No Rank 2011-09-30 19:06:22
2934500 homestylelistrecipes.info 0 No Rank 2011-09-30 19:06:35
2934501 velendil.nazwa.pl 2 2827 2011-09-30 19:06:41
2934502 mts.amberlace.com 0 6759576 2011-09-30 19:06:49
2934503 csc.canton-mi.org 3 1385432 2011-09-30 19:06:54
2934504 shop4.o2online.de 0 3000 2011-09-30 19:06:55
2934505 journal.ahima.org 5 119473 2011-09-30 19:07:09
2934506 vlbopleidingen.nl 3 No Rank 2011-09-30 19:07:16
2934507 blog.bingo929.com 4 133391 2011-09-30 19:07:17
2934508 media.fish4.co.uk 3 32488 2011-09-30 19:07:22
2934509 digitalsmiths.com 5 872655 2011-09-30 19:07:28
2934510 mmiweb.mmi.mcgill.ca 0 10188 2011-09-30 19:07:31
2934511 blog.gotuning.com 2 1229170 2011-09-30 19:07:34
2934512 stjosephs.me 2 No Rank 2011-09-30 19:07:39
2934513 exhibit.ahima.org 3 119473 2011-09-30 19:07:44
2934514 mmi.mcgill.ca 5 10188 2011-09-30 19:07:44
2934515 store.hempest.com 4 538220 2011-09-30 19:07:52
2934516 cherrystreams.com 0 No Rank 2011-09-30 19:07:56
2934517 mb.plassex.sexdating-247.nl 0 No Rank 2011-09-30 19:07:58
2934518 theportablegeneratorstore.com 0 18474041 2011-09-30 19:08:02
2934519 careers.haggar.com 0 389050 2011-09-30 19:08:09
2934520 connectivityuk.com 1 1806299 2011-09-30 19:08:14
2934521 green.iteminfo.com 4 409336 2011-09-30 19:08:19
2934522 alskamom.wordpress.com 3 14325603 2011-09-30 19:08:23
2934523 mail.cybernet1.com 0 3203352 2011-09-30 19:08:35
2934524 ghg-online.ghg.com 0 614737 2011-09-30 19:08:37
2934525 interactivephp.com 4 16976730 2011-09-30 19:08:40
2934526 kuumbastorytellers.org 3 21397627 2011-09-30 19:08:44
2934527 shop.campsaver.com 0 102825 2011-09-30 19:08:47
2934528 www2.cctonline.net 2 25550136 2011-09-30 19:08:51
2934529 reklama.antyweb.pl 4 9690 2011-09-30 19:08:55
2934530 admin.innotrac.com 0 786250 2011-09-30 19:08:59
2934531 petmedscouponscodes.com 0 No Rank 2011-09-30 19:09:06
2934532 vexmotorsports.com 1 6617286 2011-09-30 19:09:09
2934533 h-o-w.com 2 9819742 2011-09-30 19:09:14
2934534 localsexstores.com 0 17557805 2011-09-30 19:09:15
2934535 j2ski.ifyouski.com 0 507487 2011-09-30 19:09:22
2934536 villadalyankaya.com 0 No Rank 2011-09-30 19:09:27
2934537 brockportsmiles.com 1 11500234 2011-09-30 19:09:28
2934538 moto-xpressdlr.com 3 596090 2011-09-30 19:09:29
2934539 youthwellness.net 1 No Rank 2011-09-30 19:09:35
2934540 baikyakunotomo.com 1 No Rank 2011-09-30 19:09:37
2934541 taohsolutions.com 2 No Rank 2011-09-30 19:09:39
2934542 stralsunderarbeitsmarkt.de. 0 No Rank 2011-09-30 19:09:41
2934543 members.gideons.org 0 205102 2011-09-30 19:09:49
2934544 directory.hutsy.com 0 3675549 2011-09-30 19:10:00
2934545 kyoto.hoshinoya.com 0 285143 2011-09-30 19:10:17
2934546 uitzendbureau.cn.nl 5 1989243 2011-09-30 19:10:23
2934547 agent.kars4kids.org 3 423236 2011-09-30 19:10:28
2934548 beaufort.stokesbrowntoyota.com 2 2006037 2011-09-30 19:10:32
2934549 dariuszkowalski.com 3 No Rank 2011-09-30 19:10:34
2934550 enduranceeurope.net 0 23331418 2011-09-30 19:10:40
2934551 aabroofing.com 0 No Rank 2011-09-30 19:10:41
2934552 revereoceanview.com 0 No Rank 2011-09-30 19:10:46
2934553 www10.hoverspot.com 0 284128 2011-09-30 19:10:50
2934554 new50s.com 0 No Rank 2011-09-30 19:10:52
2934555 granndcompanies.com 0 6588946 2011-09-30 19:10:54
2934556 u2.interference.com 4 205477 2011-09-30 19:10:58
2934557 barnonecountrystore.com 1 No Rank 2011-09-30 19:11:04
2934558 india-goldentriangletours.com 2 560699 2011-09-30 19:11:06
2934559 hi-tech-spa.com 1 No Rank 2011-09-30 19:11:07
2934560 myjadoo.jadootv.com 2 200281 2011-09-30 19:11:21
2934561 auction.hhstyle.com 3 174779 2011-09-30 19:11:36
2934562 celadongym.cjb.net 0 16692 2011-09-30 19:11:37
2934563 admin1.tradeget.com 0 71083 2011-09-30 19:11:39
2934564 empowerelectric.com 3 No Rank 2011-09-30 19:11:46
2934565 apps.healthcomp.com 3 3281708 2011-09-30 19:11:51
2934566 consorcioquesos.com 3 No Rank 2011-09-30 19:11:55
2934567 cqcn88.com 0 No Rank 2011-09-30 19:12:06
2934568 ps3.iosolutions.org 0 9154067 2011-09-30 19:12:12
2934569 usato.infomotori.com 4 47162 2011-09-30 19:12:23
2934570 heinzcustomers.co.uk 0 No Rank 2011-09-30 19:12:25
2934571 halloweentoolbar.com 3 No Rank 2011-09-30 19:12:32
2934572 breannebensonxxx.com 0 No Rank 2011-09-30 19:12:36
2934573 compendium.ahima.org 5 119473 2011-09-30 19:12:40
2934574 members.gymjones.com 3 339426 2011-09-30 19:12:46
2934575 theporecleansingstore.com 0 No Rank 2011-09-30 19:12:47
2934576 allstrategygames.org 0 No Rank 2011-09-30 19:13:04
2934577 ghpcur.org 0 No Rank 2011-09-30 19:13:08
2934578 hungarianlawyers.com 0 No Rank 2011-09-30 19:13:09
2934579 treville.ukacc.co.uk 0 3850760 2011-09-30 19:13:10
2934580 mychart.deancare.com 4 349768 2011-09-30 19:13:10
2934581 realorlandosingles.com 0 No Rank 2011-09-30 19:13:13
2934582 softeismaschine.beratungallgemein.de 0 9522363 2011-09-30 19:13:13
2934583 creditcardsystem.com 1 2664347 2011-09-30 19:13:14
2934584 sales-laboratory.com 0 No Rank 2011-09-30 19:13:19
2934585 espanol.iteminfo.com 4 409336 2011-09-30 19:13:21
2934586 support.appliedi.net 5 106792 2011-09-30 19:13:31
2934587 shop.gutterworks.com 2 1077951 2011-09-30 19:13:35
2934588 forums.isaserver.org 4 75170 2011-09-30 19:13:40
2934589 signaturedetroit.com 2 5699032 2011-09-30 19:13:42
2934590 islamicreliefusa.org 5 1880777 2011-09-30 19:13:51
2934591 shop.janeiredale.com 4 95255 2011-09-30 19:14:01
2934592 data.grammarbook.com 5 47863 2011-09-30 19:14:10
2934593 cxt.ukacc.co.uk 0 3850760 2011-09-30 19:14:12
2934594 id2.textphilippines.org 0 475507 2011-09-30 19:14:14
2934595 marketxmarket.com 4 No Rank 2011-09-30 19:14:15
2934596 www3.implantinfo.com 4 298491 2011-09-30 19:14:18
2934597 ringtones.sorens.net 0 20890826 2011-09-30 19:14:23
2934598 secure.infocubic.net 4 298503 2011-09-30 19:14:29
2934599 unternehmensziele.beratungallgemein.de 0 9522363 2011-09-30 19:14:31
2934600 zytt.se 2 No Rank 2011-09-30 19:14:36
2934601 zyckosbyvivian.com 0 No Rank 2011-09-30 19:14:39
2934602 zwierzatka.za.pl 2 49291 2011-09-30 19:14:45
2934603 wolfpacksports.com 0 No Rank 2011-09-30 19:14:45
2934604 risiko-lebensversicherung.beratungallgemein.de 0 9522363 2011-09-30 19:14:46
2934605 zurzach.info 0 No Rank 2011-09-30 19:14:46
2934606 dancingwiththestarsseason2011.com 0 No Rank 2011-09-30 19:14:48
2934607 zupa-bl-majke-terezije.hr 4 No Rank 2011-09-30 19:14:50
2934608 minimotoringgear.com 4 1379577 2011-09-30 19:14:52
2934609 olimpiada2010.gol.bg 2 56366 2011-09-30 19:14:53
2934610 zudp.wroclaw.dolnoslaskie.odgik.tel 0 No Rank 2011-09-30 19:14:54
2934611 irmgardschlenker.com 3 No Rank 2011-09-30 19:14:55
2934612 zrock1077.com 4 16771328 2011-09-30 19:14:55
2934613 foxtale.georgefox.edu 4 300810 2011-09-30 19:15:01
2934614 zophia.com 3 No Rank 2011-09-30 19:15:01
2934615 zorikto.com 2 7631618 2011-09-30 19:15:01
2934616 marketing.fish4.co.uk 0 32488 2011-09-30 19:15:07
2934617 yumirestaurant.ca 3 No Rank 2011-09-30 19:15:08
2934618 zoombots.com 0 No Rank 2011-09-30 19:15:08
2934619 zetapc.com 0 No Rank 2011-09-30 19:15:08
2934620 zoofilia.xo.cr 0 No Rank 2011-09-30 19:15:09
2934621 mvvrvs.link-protector.com 0 77373 2011-09-30 19:15:13
2934622 zombietaxi2.com 2 No Rank 2011-09-30 19:15:16
2934623 zooathome.com 0 No Rank 2011-09-30 19:15:16
2934624 eforums.healthdev.org 0 4598581 2011-09-30 19:15:17
2934625 legacy.guardian.co.tt 1 36347 2011-09-30 19:15:20
2934626 zmiranch.com 3 No Rank 2011-09-30 19:15:21
2934627 znakowanie.waw.pl 1 No Rank 2011-09-30 19:15:23
2934628 company.caihuanet.com 5 210720 2011-09-30 19:15:29
2934629 zlato-slitky.com 2 No Rank 2011-09-30 19:15:30
2934630 windowslivehotmail.us 0 No Rank 2011-09-30 19:15:32
2934631 zjzs.org.rs 4 7723017 2011-09-30 19:15:32
2934632 alfrasha.hawahome.com 2 4290 2011-09-30 19:15:33
2934633 zip.pr.radom.pl 0 919792 2011-09-30 19:15:36
2934634 sieuthidem.com 1 3059542 2011-09-30 19:15:38
2934635 farmopt.siteinform.ru 0 226922 2011-09-30 19:15:39
2934636 zig.lv 3 190958 2011-09-30 19:15:40
2934637 zidnisatovi.info 0 No Rank 2011-09-30 19:15:44
2934638 producer.imglobal.com 0 310372 2011-09-30 19:15:48
2934639 zhuyesoft.cn 2 3535112 2011-09-30 19:15:54
2934640 localmakeup.com 0 No Rank 2011-09-30 19:15:56
2934641 dance-skirts.com 1 14624300 2011-09-30 19:15:58
2934642 zglxmm.com 0 No Rank 2011-09-30 19:15:59
2934643 zephyfresh.com 1 No Rank 2011-09-30 19:16:08
2934644 zentalk.us 0 12572468 2011-09-30 19:16:13
2934645 zensufi.com 3 4600390 2011-09-30 19:16:16
2934646 manchestergroupllc.com 1 No Rank 2011-09-30 19:16:18
2934647 zenlaw.net 0 No Rank 2011-09-30 19:16:21
2934648 powerwomenmagazine.com 4 7332871 2011-09-30 19:16:22
2934649 insightcreditunion.com 3 419754 2011-09-30 19:16:26
2934650 zembrzuska.pl 2 No Rank 2011-09-30 19:16:29
2934651 perspectives.ahima.org 5 119473 2011-09-30 19:16:31
2934652 zelenskidmc.com 0 15561538 2011-09-30 19:16:37
2934653 zefora.com 0 No Rank 2011-09-30 19:16:45
2934654 golfcourseindustry.com 5 856842 2011-09-30 19:16:45
2934655 sino-germanmagic.itrademarket.com 0 39903 2011-09-30 19:16:47
2934656 zeeshannizami.com 0 No Rank 2011-09-30 19:16:48
2934657 secure.iggsoftware.com 5 142578 2011-09-30 19:16:50
2934658 zdatum.com 2 No Rank 2011-09-30 19:16:51
2934659 jinlongpackmach.com 0 No Rank 2011-09-30 19:16:52
2934660 investor.pharmasset.com 4 2945174 2011-09-30 19:16:55
2934661 zbynekterner.com 2 22478777 2011-09-30 19:16:56
2934662 cabinetwoodmagic.dealshopcenter.com 0 No Rank 2011-09-30 19:16:57
2934663 stage.hotelvalleyho.com 0 930368 2011-09-30 19:17:02
2934664 zbico.com 0 18357961 2011-09-30 19:17:02
2934665 elearningtools.tamu.edu 4 6754 2011-09-30 19:17:08
2934666 zhengge.cn 0 No Rank 2011-09-30 19:17:12
2934667 zawitex.pl 2 22070751 2011-09-30 19:17:13
2934668 northernminis.co.uk 2 No Rank 2011-09-30 19:17:30
2934669 zarada.nanetu.rs 2 6727746 2011-09-30 19:17:33
2934670 zaun-aus-polen.pl 1 No Rank 2011-09-30 19:17:35
2934671 zapline.ru 2 1371006 2011-09-30 19:17:41
2934672 zaoetz.ru 0 No Rank 2011-09-30 19:17:41
2934673 zanzibarbrews.com 2 22283757 2011-09-30 19:17:45
2934674 maffiagames.weblogplaza.nl 0 3928003 2011-09-30 19:17:51
2934675 zaklady-profesjonal.w8w.pl 0 240306 2011-09-30 19:17:51
2934676 txpropertytaxloan.com 0 No Rank 2011-09-30 19:17:55
2934677 zambofuvar.eu 2 No Rank 2011-09-30 19:17:56
2934678 zakazlesa.ru 0 No Rank 2011-09-30 19:17:58
2934679 falseaccuser.com 1 No Rank 2011-09-30 19:18:00
2934680 fastcurrencyexchange.com 0 No Rank 2011-09-30 19:18:01
2934681 zahoti.su 1 No Rank 2011-09-30 19:18:05
2934682 prostitutas-valencia.com 0 No Rank 2011-09-30 19:18:09
2934683 zaffet-al-mir.zaffeh.lebanonweddingservices.tel 0 4594948 2011-09-30 19:18:09
2934684 zafi.lt 4 8948101 2011-09-30 19:18:10
2934685 yahoowebsearch.us 0 No Rank 2011-09-30 19:18:10
2934686 z-hoken.com 2 9166666 2011-09-30 19:18:14
2934687 christianfamilyclass.com 0 8000312 2011-09-30 19:18:16
2934688 granburygutters.com 1 13531033 2011-09-30 19:18:18
2934689 vatlnzpro.atlanta.hp.com 0 224 2011-09-30 19:18:20
2934690 yz-studio.com 0 No Rank 2011-09-30 19:18:22
2934691 yzhuamei.cn 5 No Rank 2011-09-30 19:18:23
2934692 yvonnehealy.com 3 No Rank 2011-09-30 19:18:28
2934693 yycctv.com 0 No Rank 2011-09-30 19:18:33
2934694 yuyewang.com 1 No Rank 2011-09-30 19:18:34
2934695 casaruralroncesvalles.com 2 No Rank 2011-09-30 19:18:36
2934696 americansart.blogspot.com 0 No Rank 2011-10-22 22:10:04
2934697 yuusi.net 0 No Rank 2011-09-30 19:18:38
2934698 contactus.ukacc.co.uk 0 3850760 2011-09-30 19:18:40
2934699 lorellfurnituredealer.com 2 11625649 2011-09-30 19:18:41
2934700 yuotobe.pl 0 No Rank 2011-09-30 19:18:44
2934701 clubmiami.org 0 No Rank 2011-09-30 19:18:45
2934702 yusong.cc 2 5574963 2011-09-30 19:18:49
2934703 yummyloans.com 0 No Rank 2011-09-30 19:18:50
2934704 yugavtotrans.ru 1 10734862 2011-09-30 19:18:57
2934705 ytax.wz.cz 0 12537 2011-09-30 19:19:02
2934706 yrc-core.com 1 No Rank 2011-09-30 19:19:12
2934707 ysnb.cn 1 No Rank 2011-09-30 19:19:13
2934708 yourprimerealestate.com 0 No Rank 2011-09-30 19:19:17
2934709 youvaskin.com 2 13728783 2011-09-30 19:19:17
2934710 neukadressen63012.sexdating2.info 0 No Rank 2011-09-30 19:19:18
2934711 yourownprison.com 0 No Rank 2011-09-30 19:19:22
2934712 yourmusclejock.com 0 No Rank 2011-09-30 19:19:22
2934713 yourfreegroceries.com 2 14052667 2011-09-30 19:19:26
2934714 fsm-dca.rciwebhosting.net 6 22664689 2011-09-30 19:19:27
2934715 yourfhi.com 0 No Rank 2011-09-30 19:19:28
2934716 yourcookbook.info 0 No Rank 2011-09-30 19:19:31
2934717 yourcompany.tel 3 11004630 2011-09-30 19:19:33
2934718 youngstown-score.org 0 13452141 2011-09-30 19:19:38
2934719 3jerseys.com 0 No Rank 2011-09-30 19:19:39
2934720 timeshop24h.com 0 4549533 2011-09-30 19:19:42
2934721 young.taboocountry.de.vu 0 No Rank 2011-09-30 19:19:42
2934722 inflatableimagessports.com 3 No Rank 2011-09-30 19:19:44
2934723 thehydrationpackstore.com 0 No Rank 2011-09-30 19:19:49
2934724 yoshika-de-kurasu.net 3 No Rank 2011-09-30 19:19:50
2934725 youin6weeks.com 0 No Rank 2011-09-30 19:19:50
2934726 yorkdistrict.org 1 No Rank 2011-09-30 19:19:54
2934727 yorozuya-clinic.com 2 No Rank 2011-09-30 19:19:56
2934728 yoonreusc.com 0 327369 2011-09-30 19:19:59
2934729 08-1256-1.23.auntminnie.com 0 203094 2011-09-30 19:20:01
2934730 yokusiru.com 0 No Rank 2011-09-30 19:20:02
2934731 ymwomen.com 3 No Rank 2011-09-30 19:20:12
2934732 yodentax.com 0 No Rank 2011-09-30 19:20:12
2934733 yeu-annonces.com 2 4295045 2011-09-30 19:20:17
2934734 yellowjacketfuelsaver.com 0 No Rank 2011-09-30 19:20:22
2934735 yenisehir33.meb.gov.tr 4 2915 2011-09-30 19:20:24
2934736 lnc.nc 6 458821 2011-09-30 19:20:27
2934737 yellowcarpetmusic.com 0 No Rank 2011-09-30 19:20:27
2934738 kinkysex9590.sexdating2.info 0 No Rank 2011-09-30 19:20:28
2934739 yeahbabyexpo.com 1 No Rank 2011-09-30 19:20:33
2934740 2m4.nl 2 416789 2011-09-30 19:20:33
2934741 yecevents.com 0 No Rank 2011-09-30 19:20:34
2934742 stralsunderarbeitsmarkt.de.to 0 47993 2011-09-30 19:20:36
2934743 job7.ukacc.co.uk 0 3850760 2011-09-30 19:20:39
2934744 ycautotools.com 0 No Rank 2011-09-30 19:20:40
2934745 yayladagi.meb.gov.tr 2 2915 2011-09-30 19:20:41
2934746 plagiat.cyberfreehost.com 2 2595401 2011-09-30 19:20:44
2934747 yarmdc.org 1 No Rank 2011-09-30 19:20:45
2934748 yayahbodyproducts.com 1 No Rank 2011-09-30 19:20:45
2934749 avp.lu 3 No Rank 2011-09-30 19:20:52
2934750 gerbercouponsprintable.com 0 No Rank 2011-09-30 19:20:52
2934751 yantramatte.ch 3 4634095 2011-09-30 19:20:58
2934752 wfc.no 3 18804795 2011-09-30 19:21:05
2934753 yakkyoku-marketing.com 0 No Rank 2011-09-30 19:21:08
2934754 one.lu 2 No Rank 2011-09-30 19:21:10
2934755 xyzeventindia.com 2 9293658 2011-09-30 19:21:13
2934756 545.hu 0 No Rank 2011-09-30 19:21:19
2934757 xxxopowiadania.pl 0 No Rank 2011-09-30 19:21:21
2934758 festivalofrocketry.org 4 No Rank 2011-09-30 19:21:21
2934759 osl.lu 3 No Rank 2011-09-30 19:21:32
2934760 gnl.gr 4 5191673 2011-09-30 19:21:37
2934761 xprosoftware.com 3 3846089 2011-09-30 19:21:39
2934762 nhacviet.ukacc.co.uk 0 3850760 2011-09-30 19:21:39
2934763 estore.technobloggers.com 0 632080 2011-09-30 19:21:40
2934764 yarbrobeachhouse.com 2 No Rank 2011-09-30 19:21:40
2934765 dtk.no 3 No Rank 2011-09-30 19:21:43
2934766 xn--xkrr54h.net 0 No Rank 2011-09-30 19:21:45
2934767 g4y.nl 0 No Rank 2011-09-30 19:21:47
2934768 xn--xhqu20bqja291h.net 0 No Rank 2011-09-30 19:21:51
2934769 xn--xhqw61n.com 0 No Rank 2011-09-30 19:21:54
2934770 xn--wskanik-jwb.pl 0 No Rank 2011-09-30 19:21:54
2934771 xn--vsa-jua.com 0 No Rank 2011-09-30 19:21:59
2934772 xn--w9qt40azuhhwmpta.net 0 No Rank 2011-09-30 19:21:59
2934773 xn--vrmdmklare-q5ae6u.com 0 No Rank 2011-09-30 19:22:04
2934774 xn--rhqu0ve3crvybvt.com 0 No Rank 2011-09-30 19:22:09
2934775 allaboutbeingfit.blogspot.com 0 No Rank 2011-09-30 19:22:09
2934776 xn--pilarkaacuchowa-5sc9a.pl 0 No Rank 2011-09-30 19:22:11
2934777 agi.tv 2 19753906 2011-09-30 19:22:11
2934778 xn--oorv7pbxbnsm63kba.net 1 No Rank 2011-09-30 19:22:13
2934779 xn--oor964o.com 0 No Rank 2011-09-30 19:22:16
2934780 alibaugnagaonpicnic.com 0 No Rank 2011-09-30 19:22:17
2934781 sut.cz 4 No Rank 2011-09-30 19:22:17
2934782 suf.ch 3 5290381 2011-09-30 19:22:19
2934783 xn--kursyprzeciwpoarowe-oee.pl 0 No Rank 2011-09-30 19:22:21
2934784 xn--m93ar9g.net 4 No Rank 2011-09-30 19:22:22
2934785 aod.lu 3 No Rank 2011-09-30 19:22:24
2934786 shattered.ukacc.co.uk 0 3850760 2011-09-30 19:22:27
2934787 xn--iiq35v.net 0 No Rank 2011-09-30 19:22:28
2934788 lnc.ru 4 1687226 2011-09-30 19:22:30
2934789 xn--grtel-shop-9db.com 0 No Rank 2011-09-30 19:22:31
2934790 xn--fiq197e.com 0 No Rank 2011-09-30 19:22:36
2934791 mrvc.ukacc.co.uk 0 3850760 2011-09-30 19:22:37
2934792 xn--bxy695c.net 3 No Rank 2011-09-30 19:22:38
2934793 xn--9dbae3a0dc.net 0 No Rank 2011-09-30 19:22:42
2934794 xn--7br918m.com 0 No Rank 2011-09-30 19:22:43
2934795 xn----5mcibgc0k3ab8c.com 0 No Rank 2011-09-30 19:22:47
2934796 xn--5dbcdis8h.net 0 No Rank 2011-09-30 19:22:47
2934797 sak.lu 0 No Rank 2011-09-30 19:22:53
2934798 xlcomparator.net 2 2368101 2011-09-30 19:22:56
2934799 xiusecai.com 3 1243646 2011-09-30 19:23:00
2934800 gunkfood.tk 0 No Rank 2011-09-30 19:23:02
2934801 xjfifa.com 3 1582614 2011-09-30 19:23:02
2934802 xipa.org 2 4263336 2011-09-30 19:23:03
2934803 alus.lu 4 No Rank 2011-09-30 19:23:10
2934804 fflh.no 2 12079029 2011-09-30 19:23:19
2934805 visp.ru 3 961441 2011-09-30 19:23:21
2934806 xinshengchang.com 2 6253880 2011-09-30 19:23:23
2934807 heel.lv 2 23188955 2011-09-30 19:23:26
2934808 xidazoon.com 2 No Rank 2011-09-30 19:23:27
2934809 xhp.pl 2 No Rank 2011-09-30 19:23:33
2934810 nps.edu 7 135870 2011-09-30 19:23:39
2934811 xfestdayton.com 1 7122514 2011-09-30 19:23:42
2934812 xintuike.com 1 7148598 2011-09-30 19:23:49
2934813 xdfschool.cn 2 No Rank 2011-09-30 19:23:52
2934814 xcessballoonteam.com 1 7356123 2011-09-30 19:23:54
2934815 7lf.org 0 No Rank 2011-09-30 19:24:01
2934816 prairiemennonite.org 0 No Rank 2011-09-30 19:24:02
2934817 ajda.sk 2 18311940 2011-09-30 19:24:03
2934818 xbox-360-destravado.com 0 No Rank 2011-09-30 19:24:07
2934819 store1.ukacc.co.uk 0 3850760 2011-09-30 19:24:08
2934820 shain.ukacc.co.uk 0 3850760 2011-09-30 19:24:09
2934821 xar3.com 0 No Rank 2011-09-30 19:24:10
2934822 heel.lt 4 8072232 2011-09-30 19:24:11
2934823 cheapkindlefire.com 0 No Rank 2011-09-30 19:24:12
2934824 megapetroleum.ru 3 7804745 2011-09-30 19:24:13
2934825 x-web.be 2 No Rank 2011-09-30 19:24:15
2934826 x-perientialmarketing.com 0 No Rank 2011-09-30 19:24:20
2934827 vift.nl 1 No Rank 2011-09-30 19:24:21
2934828 zuzu.sk 0 No Rank 2011-09-30 19:24:22
2934829 wzrzuta.pl 0 No Rank 2011-09-30 19:24:24
2934830 ilmucorp.blogspot.com 0 6035833 2011-09-30 19:24:26
2934831 jo2.org 3 897229 2011-09-30 19:24:30
2934832 wylezalek.com.pl 1 No Rank 2011-09-30 19:24:30
2934833 xazhileng.com 0 No Rank 2011-09-30 19:24:34
2934834 wycieczka.sandomierz.pl 0 1259066 2011-09-30 19:24:37
2934835 skke.sk 3 No Rank 2011-09-30 19:24:40
2934836 wxhgjx.com 3 No Rank 2011-09-30 19:24:40
2934837 i-bz.at 2 No Rank 2011-09-30 19:24:41
2934838 wvttrier.de 6 20703382 2011-09-30 19:24:43
2934839 concreteartist.com 2 7216069 2011-09-30 19:24:44
2934840 wvbizmall.com 3 13052476 2011-09-30 19:24:47
2934841 haha.si 3 19454762 2011-09-30 19:24:54
2934842 writerlot.net 1 24171971 2011-09-30 19:24:56
2934843 wrsmarketingsolutions.com 0 22020540 2011-09-30 19:25:00
2934844 writeawaysigns.com 1 No Rank 2011-09-30 19:25:00
2934845 vmet.de 4 10436340 2011-09-30 19:25:04
2934846 wristwallet.info 0 No Rank 2011-09-30 19:25:06
2934847 nathanfairbairn.com 3 24551607 2011-09-30 19:25:07
2934848 shahdnasser.ahlamontada.com 2 2163 2011-09-30 19:25:07
2934849 wrightlandscapings.com 0 No Rank 2011-09-30 19:25:08
2934850 ko1.org 3 21512258 2011-09-30 19:25:13
2934851 wowfactorms.com 1 20030902 2011-09-30 19:25:14
2934852 wowhunterbuilds.org 1 No Rank 2011-09-30 19:25:15
2934853 1615.tv 2 No Rank 2011-09-30 19:25:15
2934854 wotagei.net 3 No Rank 2011-09-30 19:25:19
2934855 reau.ru 0 No Rank 2011-09-30 19:25:19
2934856 woszczyce.pl 0 No Rank 2011-09-30 19:25:19
2934857 cheapamazonfire.com 0 No Rank 2011-09-30 19:25:21
2934858 szus.sk 1 No Rank 2011-09-30 19:25:34
2934859 niks.me 0 10706444 2011-09-30 19:25:35
2934860 wosp.demo.pl 0 3556579 2011-09-30 19:25:36
2934861 eccc.no 0 No Rank 2011-09-30 19:25:43
2934862 worldwidelabs.com 3 4293550 2011-09-30 19:25:54
2934863 lu7.biz 3 No Rank 2011-09-30 19:25:56
2934864 forex.ukacc.co.uk 0 3850760 2011-09-30 19:25:57
2934865 worldviewradionetwork.com 0 No Rank 2011-09-30 19:25:59
2934866 worsbroughbridgefc.com 0 No Rank 2011-09-30 19:26:01
2934867 lyca.nl 0 3802446 2011-09-30 19:26:06
2934868 worlds.csillagkapu.hu 2 1681156 2011-09-30 19:26:09
2934869 worldofmeditation.com 4 21836285 2011-09-30 19:26:12
2934870 wapp.dk 0 10004241 2011-09-30 19:26:12
2934871 worldreikiassociation.org 3 6861510 2011-09-30 19:26:15
2934872 news.ukacc.co.uk 0 3850760 2011-09-30 19:26:22
2934873 worldgoodssale.com 2 No Rank 2011-09-30 19:26:23
2934874 glyn.hu 1 No Rank 2011-09-30 19:26:24
2934875 worldbignews.com 0 13874092 2011-09-30 19:26:25
2934876 wordpressdeveloperinc.com 1 5060886 2011-09-30 19:26:38
2934877 tse.net 1 No Rank 2011-09-30 19:26:38
2934878 rockmusicfans.net 0 No Rank 2011-09-30 19:26:41
2934879 wordpress-md.com 1 23267963 2011-09-30 19:26:42
2934880 sielex.com 0 No Rank 2011-09-30 19:26:43
2934881 woollybabs.com 1 13667381 2011-09-30 19:26:46
2934882 kino-portal.my1.ru 0 183 2011-09-30 19:26:48
2934883 woodysproductions.net 0 No Rank 2011-09-30 19:26:51
2934884 aup.org 3 No Rank 2011-09-30 19:26:52
2934885 woodparkmedicalcenter.com 1 11701369 2011-09-30 19:26:56
2934886 woodenbear.ru 1 2568393 2011-09-30 19:27:04
2934887 zhp.org 3 No Rank 2011-09-30 19:27:07
2934888 woodcabinetswarehouse.com 0 No Rank 2011-09-30 19:27:12
2934889 wood-koubou.com 3 5962868 2011-09-30 19:27:16
2934890 centralarwc.com 0 No Rank 2011-09-30 19:27:20
2934891 wondermagic.com 1 13087452 2011-09-30 19:27:21
2934892 pages.ukacc.co.uk 0 3850760 2011-09-30 19:27:22
2934893 plot.pk 0 2131126 2011-09-30 19:27:22
2934894 wonderlist.net 0 No Rank 2011-09-30 19:27:26
2934895 wpww.nl 0 No Rank 2011-09-30 19:27:29
2934896 heja.se 2 14002189 2011-09-30 19:27:32
2934897 womensspaces.com 1 23871540 2011-09-30 19:27:33
2934898 theinfantcarseatstore.com 0 No Rank 2011-09-30 19:27:34
2934899 womensgoldshoes.net 0 No Rank 2011-09-30 19:27:37
2934900 id2.ukacc.co.uk 0 3850760 2011-09-30 19:27:39
2934901 abfi.ie 5 10443792 2011-09-30 19:27:41
2934902 womenseduce.com 0 No Rank 2011-09-30 19:27:45
2934903 theorganicbabyfoodstore.com 0 18607809 2011-09-30 19:27:46
2934904 arnoldpalmerteastory.com 0 No Rank 2011-09-30 19:27:47
2934905 womenhealthaddiction.com 0 No Rank 2011-09-30 19:27:52
2934906 penguinpools.co.za 2 6280297 2011-09-30 19:27:59
2934907 wollbox.de 3 2411809 2011-09-30 19:27:59
2934908 lynk.co 0 No Rank 2011-09-30 19:28:00
2934909 cavmen.home.ukacc.co.uk 0 3850760 2011-09-30 19:28:07
2934910 wnfrhc.org 3 23949469 2011-09-30 19:28:08
2934911 wncfhg.org 3 No Rank 2011-09-30 19:28:11
2934912 cnds.lu 2 18355531 2011-09-30 19:28:14
2934913 ucan.es 0 No Rank 2011-09-30 19:28:20
2934914 wm-business.ru 1 9851765 2011-09-30 19:28:21
2934915 gcpf.lu 4 No Rank 2011-09-30 19:28:24
2934916 ikoz.sk 2 No Rank 2011-09-30 19:28:29
2934917 kuhm.at 0 No Rank 2011-09-30 19:28:33
2934918 nslgsolutions.com 0 No Rank 2011-09-30 19:28:41
2934919 eventsbysinead.com 2 No Rank 2011-09-30 19:28:43
2934920 wizipics.com 0 No Rank 2011-09-30 19:28:44
2934921 music.de-show.andrinda.net 0 2714588 2011-09-30 19:28:45
2934922 witold-hodowla.mtx.pl 0 5999018 2011-09-30 19:28:48
2934923 gsmstyle.com 0 No Rank 2011-09-30 19:28:50
2934924 withvered.com 2 18486474 2011-09-30 19:28:54
2934925 withoutthefilm.com 0 No Rank 2011-09-30 19:28:57
2934926 without-prescription.biz 0 No Rank 2011-09-30 19:29:00
2934927 wisio.fi 2 No Rank 2011-09-30 19:29:14
2934928 wisdomviews.com 0 25814887 2011-09-30 19:29:17
2934929 wisdomoracle.com 1 No Rank 2011-09-30 19:29:20
2934930 wirelesssurroundheadphones.org 0 18712489 2011-09-30 19:29:29
2934931 wirelessonthe.net 0 No Rank 2011-09-30 19:29:32
2934932 wirek.eu 2 No Rank 2011-09-30 19:29:37
2934933 wirece.com 2 11375654 2011-09-30 19:29:48
2934934 winx.club.fm.interia.pl 0 706 2011-09-30 19:29:53
2934935 winwithtms.com 0 No Rank 2011-09-30 19:30:01
2934936 winterbournelandscape.com 3 No Rank 2011-09-30 19:30:14
2934937 winsteadparkcity.com 0 No Rank 2011-09-30 19:30:19
2934938 motorcycleshelmets.blogspot.com 0 No Rank 2011-09-30 19:30:27
2934939 winningbetblog.com 0 27121891 2011-09-30 19:30:32
2934940 smotrim-serial.3dn.ru 0 183 2011-09-30 19:30:33
2934941 wingsfirst.com 0 No Rank 2011-09-30 19:30:36
2934942 wingateroundrock.com 4 4078160 2011-09-30 19:30:41
2934943 winebarwineries.com 1 7794670 2011-09-30 19:30:49
2934944 stardoll.ukacc.co.uk 0 3850760 2011-09-30 19:30:53
2934945 windsor.com.pl 1 No Rank 2011-09-30 19:31:01
2934946 wow.ukacc.co.uk 0 3850760 2011-09-30 19:31:04
2934947 windsa.net 3 10308331 2011-09-30 19:31:11
2934948 windmillgardens.ca 1 No Rank 2011-09-30 19:31:14
2934949 windhamrepublicans.org 1 No Rank 2011-09-30 19:31:18
2934950 win-download.com 0 No Rank 2011-09-30 19:31:21
2934951 wilsonmarimba.com 2 No Rank 2011-09-30 19:31:30
2934952 ukacc.co.uk 1 3850760 2011-09-30 19:31:43
2934953 win-double.com 0 820588 2011-09-30 19:31:45
2934954 willowglenbicycles.com 3 4809350 2011-09-30 19:31:53
2934955 willmarcozyinn.com 2 No Rank 2011-09-30 19:31:55
2934956 williemart.com 0 No Rank 2011-09-30 19:31:57
2934957 williamsharp.com 2 No Rank 2011-09-30 19:32:00
2934958 willandersonradio.com 1 21276241 2011-09-30 19:32:09
2934959 wilhelmconstruction.net 0 No Rank 2011-09-30 19:32:09
2934960 wildn3.com 0 No Rank 2011-09-30 19:32:12
2934961 wildcattersseries.com 2 No Rank 2011-09-30 19:32:14
2934962 replaceyoursalary.com 4 95370 2011-09-30 19:32:17
2934963 dennisedell.com 2 178733 2011-09-30 19:32:17
2934964 wildcatreenactment.org 3 18248203 2011-09-30 19:32:19
2934965 wikispeech.org 0 No Rank 2011-09-30 19:32:23
2934966 8090a.5d6d.com 0 1064 2011-09-30 19:32:25
2934967 wielertrofee-vlaanderen.be 2 No Rank 2011-09-30 19:32:28
2934968 wiki.biitsi.fi 0 520357 2011-09-30 19:32:29
2934969 widqvist.se 0 No Rank 2011-09-30 19:32:33
2934970 widgetsblog.info 0 7265219 2011-09-30 19:32:34
2934971 wickfordappliance.com 2 7173744 2011-09-30 19:32:42
2934972 whospro.fr 1 21227255 2011-09-30 19:32:44
2934973 whosoeverdallas.org 1 No Rank 2011-09-30 19:32:46
2934974 wholeartsberlin.com 0 No Rank 2011-09-30 19:32:48
2934975 stoqinternational.org 2 No Rank 2011-09-30 19:32:49
2934976 whitesandgaming.com 3 No Rank 2011-09-30 19:32:54
2934977 whittierfishing.com 3 No Rank 2011-09-30 19:32:56
2934978 whitepointers.net 2 No Rank 2011-09-30 19:32:59
2934979 whiteandblack.be 0 No Rank 2011-09-30 19:33:01
2934980 whistlerescort.ca 0 3130014 2011-09-30 19:33:07
2934981 prashaktivedicastrology.org 0 No Rank 2011-09-30 19:33:12
2934982 whiskerzpetsitting.com 1 No Rank 2011-09-30 19:33:12
2934983 whisperwillow.com 2 6918247 2011-09-30 19:33:12
2934984 whereifishfishingtournamentseries.com 0 No Rank 2011-09-30 19:33:17
2934985 whimsicalwoodworks.com 0 No Rank 2011-09-30 19:33:17
2934986 valleylifebaptist.com 0 No Rank 2011-09-30 19:33:21
2934987 urolap.ru 2 No Rank 2011-09-30 19:33:23
2934988 whatnowkathie.com 1 22441901 2011-09-30 19:33:27
2934989 thelcdwallmountstore.com 0 No Rank 2011-09-30 19:33:29
2934990 whcwbj.com 0 13170274 2011-09-30 19:33:30
2934991 blog.gremln.com 1 1032190 2011-09-30 19:33:33
2934992 whatatrill.com 1 25677647 2011-09-30 19:33:36
2934993 whatdoclientsreallywant.com 0 19868787 2011-09-30 19:33:38
2934994 whalerscove.net 2 18337737 2011-09-30 19:33:41
2934995 wewantgeeks.com 3 No Rank 2011-09-30 19:33:42
2934996 wettilesaw.us 0 No Rank 2011-09-30 19:33:45
2934997 computerundzubeheur.com 0 9224973 2011-09-30 19:33:47
2934998 westsutherland.com 2 No Rank 2011-09-30 19:33:49
2934999 wetcunt2fuck.com 0 No Rank 2011-09-30 19:33:53